RH
67 78 77 79 81 81 77 73 78 75 71 60 43 31 18 13 15 15 15 13 18 22 21 14 9 11 12 17 21 20 16 14 16 18 18 17 16 15 15 18 19 20 23 26 26 28 27 24 24 26 30 33 40 56 67 68 68 68 69 72 77 75
68 76 78 79 81 84 78 75 79 79 75 58 43 30 17 21 23 23 28 29 39 48 49 39 27 20 13 15 19 20 18 14 15 16 18 18 16 16 15 16 16 17 18 17 24 42 48 41 35 29 33 46 58 69 74 75 76 75 75 77 78 72
70 75 77 78 80 84 79 77 81 81 78 57 46 40 27 41 48 44 52 54 56 58 63 67 59 45 35 28 20 19 18 16 16 15 18 18 18 19 16 17 17 18 21 25 44 63 65 61 57 48 50 61 70 75 77 82 82 80 82 80 78 75
72 72 75 78 80 84 81 82 83 79 78 61 60 66 56 68 72 59 57 59 64 63 65 74 73 70 71 64 48 39 32 26 23 19 21 23 24 21 20 24 19 21 39 52 63 67 61 64 67 65 69 72 76 80 81 84 83 81 83 79 77 76
72 72 73 78 79 81 83 84 83 78 78 72 74 80 71 68 59 51 53 55 63 66 67 76 78 81 83 80 75 71 64 56 52 44 44 54 56 51 54 59 51 51 67 73 73 73 69 73 76 75 80 81 83 85 83 84 85 87 85 78 74 72
71 72 73 77 77 79 83 81 81 80 80 84 87 76 57 45 41 51 59 58 66 70 72 76 77 80 78 76 78 77 76 73 75 71 72 87 87 82 88 88 83 82 84 84 84 85 80 78 82 84 84 84 86 87 85 86 88 92 88 78 74 72
69 75 76 71 74 79 79 80 81 79 82 88 90 77 50 38 48 62 65 66 74 77 77 77 76 76 73 76 76 73 76 74 80 80 81 97 96 90 96 92 90 91 90 92 91 91 88 79 76 82 85 84 85 86 86 88 90 95 91 78 74 74
71 76 75 67 72 78 78 82 78 77 85 77 72 74 56 47 59 66 69 75 76 76 79 79 79 77 73 77 77 76 77 75 80 80 78 92 97 93 93 89 88 90 91 94 92 90 91 86 80 82 86 84 83 84 83 85 86 92 94 81 73 72
78 72 70 69 73 77 79 81 78 86 86 60 56 64 54 54 64 68 72 77 76 78 80 78 79 76 75 79 80 79 78 76 77 76 76 82 88 89 88 86 85 88 90 91 91 88 88 91 88 84 85 81 77 76 77 83 86 87 89 81 72 69
84 71 66 72 76 79 81 81 84 91 72 50 55 57 55 64 69 72 74 74 76 78 79 79 78 75 77 80 80 81 80 78 75 74 77 76 76 79 83 86 84 87 91 91 91 86 85 89 85 80 83 82 75 70 69 78 86 87 86 85 80 72
83 71 68 74 77 78 79 81 83 74 57 56 60 55 63 71 69 72 73 73 75 77 79 79 78 75 76 79 81 85 83 80 78 76 77 75 72 71 75 79 77 78 82 84 84 80 82 86 83 79 83 83 77 71 66 68 76 81 83 88 92 86
79 70 71 75 74 73 75 77 74 64 62 67 62 58 65 66 67 71 71 73 76 78 80 79 78 76 78 82 82 82 80 80 81 79 76 73 73 72 73 73 69 69 69 71 74 75 80 86 84 82 84 83 78 75 73 69 71 74 77 82 92 97
83 71 69 73 73 70 69 72 72 70 74 71 63 64 67 64 69 73 71 73 77 81 82 82 80 78 82 84 82 79 77 78 79 78 76 76 77 76 77 75 71 70 68 70 77 78 81 86 86 83 85 84 77 74 74 72 74 75 76 80 87 95
88 76 70 72 75 73 69 71 73 72 73 71 66 69 70 65 68 73 74 74 77 82 84 85 84 83 85 85 83 81 78 77 76 78 79 80 80 78 79 76 73 73 70 74 81 80 82 86 87 86 86 82 72 67 70 72 77 79 80 84 87 91
88 78 75 75 76 75 71 70 70 70 73 70 66 70 70 64 66 73 78 79 80 82 84 84 84 86 86 87 88 85 82 79 76 77 78 79 78 76 75 69 69 70 66 72 82 84 85 86 89 92 91 86 74 71 75 78 81 83 84 87 88 90
89 80 76 78 80 78 76 73 69 70 72 67 67 74 71 65 70 76 80 82 81 80 82 82 83 86 86 86 89 85 81 79 75 73 73 75 75 74 74 67 64 63 62 73 86 88 85 87 95 97 95 90 81 79 82 82 84 85 86 87 87 85
87 86 77 77 82 81 80 76 70 70 68 65 71 77 74 70 73 76 80 82 81 80 81 82 83 85 86 87 89 84 80 83 81 74 71 72 71 71 73 69 63 62 64 76 90 91 85 90 99 99 95 90 84 85 86 85 86 84 85 84 81 79
86 91 80 72 75 77 81 78 72 72 68 68 76 81 79 77 77 80 84 84 84 86 85 85 85 85 86 86 86 85 88 94 87 76 72 70 69 68 69 69 65 64 65 72 83 86 85 92 98 98 95 90 87 88 87 86 85 84 84 82 78 74
84 87 80 67 63 67 77 78 74 74 72 74 83 85 84 85 85 84 86 87 87 88 88 88 88 86 86 85 86 90 96 95 81 73 70 70 73 69 67 66 63 64 66 67 67 67 79 94 97 97 93 89 90 89 88 86 85 85 82 78 71 60
82 84 80 61 55 63 72 77 76 74 72 78 88 88 83 87 90 85 86 90 90 91 91 90 88 87 87 90 95 98 95 83 72 70 69 71 74 71 67 65 65 67 64 57 48 53 81 98 96 98 95 88 89 90 89 89 86 84 77 65 50 32
82 85 79 57 58 64 64 72 74 70 73 82 91 88 82 86 88 84 87 90 92 94 93 89 88 90 92 97 101 96 85 74 69 70 69 69 70 68 67 67 68 63 52 42 34 45 80 99 93 95 99 93 93 92 88 88 84 74 60 41 23 10
83 87 77 59 69 69 61 69 70 71 82 88 90 87 84 86 87 86 89 92 95 97 95 93 92 94 98 100 96 87 78 70 67 65 64 65 64 65 66 65 59 46 36 32 28 33 57 85 90 87 91 91 94 93 86 86 77 58 41 21 7 4
84 86 77 66 76 74 68 75 74 81 90 90 91 89 86 87 90 92 93 97 100 98 99 98 97 98 100 96 88 79 72 64 60 58 59 61 61 63 60 52 41 31 29 29 26 24 29 57 80 81 81 81 86 90 90 88 65 36 22 8 2 5
85 84 79 77 82 78 78 83 84 90 93 92 95 94 91 90 95 99 97 99 100 98 100 100 99 101 97 89 78 70 63 54 51 53 58 62 59 54 44 34 28 24 28 29 26 21 17 33 59 74 79 72 71 74 78 85 65 33 19 7 2 4
86 83 82 85 86 83 83 86 88 90 94 97 98 97 97 97 99 101 99 100 100 99 101 99 100 101 93 80 68 60 55 50 50 55 60 57 46 37 28 25 23 18 20 23 19 14 12 15 29 53 69 71 72 59 53 72 71 47 28 12 4 3
85 82 87 89 86 82 80 82 83 83 88 95 97 100 100 100 100 100 100 100 100 100 100 99 99 97 86 71 61 57 54 52 56 58 53 41 30 25 22 19 17 12 9 10 11 10 8 5 9 21 34 49 57 41 34 57 67 50 30 17 7 2
84 86 92 91 85 83 82 84 83 82 87 91 97 100 99 100 100 100 100 100 100 100 100 99 95 90 79 65 59 59 57 57 58 50 37 27 22 19 16 12 8 6 4 3 8 10 5 3 4 5 5 13 17 10 14 37 51 48 42 41 30 12
86 93 90 86 84 84 86 85 83 88 94 97 100 99 97 100 100 100 100 100 100 100 99 96 90 81 72 64 63 63 60 57 49 36 27 21 17 12 8 7 3 2 3 2 5 6 4 3 3 3 2 2 2 0 3 11 21 31 41 49 46 36
91 94 83 81 86 85 87 86 86 94 98 98 99 98 98 100 100 100 100 100 100 100 96 91 83 74 68 67 67 63 59 52 38 27 22 15 10 6 3 3 2 2 3 2 2 2 3 3 2 2 3 2 3 3 3 1 2 12 27 34 36 43
93 92 82 83 89 88 89 92 96 98 96 95 97 99 100 99 100 100 100 100 100 100 98 88 78 72 71 71 67 63 56 44 29 21 16 9 5 3 2 2 2 2 2 2 3 2 2 2 2 3 3 3 7 9 8 5 2 7 22 32 32 34
90 86 83 86 90 91 93 95 98 97 94 96 97 97 99 99 100 100 100 101 100 101 98 87 79 76 75 71 65 60 48 33 22 16 10 5 3 2 2 3 2 2 3 2 2 2 3 2 2 2 2 2 4 6 7 4 3 7 15 28 36 36
86 85 84 86 90 95 96 97 98 96 95 98 97 97 99 100 100 100 100 100 100 100 96 89 87 82 75 68 61 51 36 23 16 11 6 4 3 3 2 2 2 2 2 2 3 2 2 2 2 2 3 3 2 2 3 2 2 4 4 11 26 36
84 87 86 87 93 97 97 98 97 94 95 97 98 99 100 100 100 100 101 100 100 100 97 95 94 87 78 66 52 38 25 18 13 8 6 4 3 3 3 3 3 3 2 2 3 2 2 2 2 3 2 2 3 2 3 3 2 3 3 2 10 24
87 89 88 86 91 95 95 96 96 93 94 94 97 100 99 100 100 99 100 100 100 100 99 99 93 86 81 65 41 25 18 14 10 7 5 4 3 3 3 3 3 2 3 3 2 2 3 2 2 3 3 3 3 3 2 3 3 2 4 3 1 8
91 90 91 88 89 93 92 93 96 96 94 93 97 99 100 100 98 97 100 99 99 98 99 101 88 73 67 51 28 17 15 12 9 7 4 4 4 3 4 3 3 3 2 3 3 2 2 3 3 3 3 3 2 3 3 3 4 3 3 5 4 3
92 89 92 90 88 91 90 93 99 99 95 94 97 99 100 100 97 98 100 98 98 99 100 97 77 53 42 30 18 15 13 10 9 6 4 5 4 4 4 3 3 3 3 3 3 3 3 3 3 3 3 3 3 3 3 2 3 4 4 4 5 4
90 90 92 90 89 92 93 96 100 99 97 96 98 100 100 99 98 99 100 100 99 100 100 89 60 37 25 18 15 14 11 9 8 5 4 5 4 4 4 4 4 3 3 3 3 3 4 3 3 3 3 3 3 3 3 3 4 4 5 5 5 7
Wind_Speed
15 15 14 13 12 11 10 10 8 7 6 5 5 6 7 8 8 8 8 8 8 9 9 9 9 8 9 8 8 9 10 9 9 9 8 7 7 6 5 5 5 4 4 4 4 4 5 5 5 6 6 6 7 6 5 5 5 6 6 6 7 7
15 15 14 14 12 11 10 9 7 6 5 5 6 7 8 8 8 8 8 7 7 7 8 8 7 8 8 8 8 8 8 8 7 7 7 7 6 5 5 4 4 3 4 3 3 3 4 5 6 6 5 6 6 4 5 6 5 6 6 5 7 9
15 16 15 14 12 11 10 9 8 6 5 5 6 8 8 8 7 7 6 6 6 6 7 5 4 6 7 6 6 7 6 6 6 6 5 5 5 4 4 3 3 3 3 2 1 2 2 3 5 6 5 5 4 4 5 5 5 6 6 6 7 8
15 16 15 14 12 12 11 10 8 7 6 5 7 8 8 8 7 8 6 5 5 4 5 4 3 5 5 4 4 5 5 5 4 4 4 3 2 2 2 1 2 1 0 1 1 2 2 2 3 3 3 3 3 4 5 5 5 5 6 8 8 9
15 16 15 14 13 12 12 10 9 8 8 8 7 7 8 8 8 8 6 4 4 3 3 3 2 3 3 2 2 3 3 3 4 3 4 3 2 2 2 1 0 1 1 1 2 2 2 2 2 2 2 3 3 4 4 4 5 4 6 9 9 10
15 16 15 14 13 12 11 10 9 9 9 7 7 7 8 8 8 7 5 3 3 2 2 2 2 2 2 2 2 2 2 3 3 3 4 3 1 2 2 2 1 1 1 1 1 2 2 2 1 2 2 2 3 3 3 4 4 4 6 9 9 10
16 16 15 14 14 12 11 10 10 11 9 7 7 8 8 8 7 6 5 3 2 1 1 1 1 1 2 2 2 2 2 2 3 3 3 3 1 2 1 1 1 1 1 0 1 1 3 3 2 1 2 2 3 3 3 3 4 4 5 9 10 10
17 16 14 15 14 12 11 11 11 11 8 8 8 8 8 8 7 5 4 3 3 2 1 1 1 1 1 2 1 2 1 2 3 2 3 3 2 2 1 0 0 0 0 0 1 1 2 3 3 2 2 3 3 4 4 4 4 3 4 9 10 11
17 17 15 15 14 12 12 11 11 9 8 9 8 7 7 7 6 5 4 4 4 3 3 3 2 2 1 1 2 2 2 2 2 2 2 3 2 1 1 1 1 2 2 2 2 2 2 3 3 3 3 4 5 4 5 4 4 4 4 8 11 12
16 17 16 15 14 13 12 11 10 9 8 9 8 8 8 7 6 5 5 5 5 4 4 4 3 3 2 2 2 2 2 2 2 2 2 2 1 1 1 2 2 2 2 2 3 3 3 3 3 4 4 5 6 6 5 4 4 4 4 6 8 11
16 17 17 15 15 14 13 12 11 10 9 9 8 9 9 7 7 6 6 5 5 4 4 4 4 4 3 3 3 2 2 1 1 1 2 2 1 1 1 1 2 2 2 3 3 4 3 3 3 4 4 5 6 6 6 5 4 3 4 4 4 7
15 18 18 16 15 15 13 13 12 11 9 9 10 10 9 8 8 7 6 5 4 4 4 5 5 4 3 3 3 3 2 1 1 1 1 1 2 2 2 1 2 2 3 3 4 5 4 3 3 3 4 5 5 5 5 5 5 5 4 3 2 3
16 17 17 16 15 14 13 12 12 11 10 10 11 10 9 9 8 7 6 6 5 4 4 4 4 3 3 3 3 2 2 2 1 1 1 1 2 2 2 2 3 3 3 4 4 5 4 4 4 3 3 3 4 4 4 5 4 4 4 3 1 1
17 18 17 16 14 13 12 12 11 11 11 11 11 10 9 8 8 7 6 6 6 4 4 3 3 3 2 2 2 2 2 2 1 1 1 1 2 2 2 2 3 4 4 5 4 4 4 4 4 4 2 2 5 5 4 4 3 3 3 3 3 2
17 18 17 15 14 14 13 12 12 12 11 11 10 9 9 9 8 7 6 6 6 4 4 3 3 3 2 2 2 1 1 1 1 0 1 2 2 2 2 4 4 4 5 4 4 4 4 4 2 2 2 2 4 4 3 3 2 2 2 2 2 2
16 17 17 15 14 14 14 13 13 13 12 11 10 9 8 9 8 7 7 6 5 4 4 4 3 3 2 2 2 2 2 2 2 1 2 3 3 4 5 6 5 5 5 4 4 3 3 4 2 0 1 1 4 3 3 3 2 2 2 1 1 2
16 16 16 17 16 14 13 13 14 14 13 11 9 9 8 9 8 8 6 5 4 3 3 4 3 3 3 2 2 3 2 2 2 2 4 5 5 6 7 7 6 5 6 5 3 2 2 4 3 1 1 3 4 4 3 3 2 2 1 1 2 3
16 15 15 17 17 15 14 14 14 14 13 11 10 10 9 9 8 7 6 5 4 4 4 4 4 4 3 3 3 3 2 2 3 4 5 6 6 7 7 7 8 6 7 6 4 4 1 3 3 2 2 5 5 4 4 2 2 1 0 1 3 4
17 16 16 16 16 16 15 15 16 15 14 12 11 11 10 8 7 7 6 5 4 4 4 4 4 4 3 3 3 3 3 4 5 5 5 6 6 7 8 8 9 8 7 5 6 5 2 4 4 3 3 6 5 5 4 3 2 0 2 2 4 4
18 16 15 14 16 18 17 17 18 16 14 13 11 12 10 8 6 6 5 4 4 4 4 5 5 4 4 4 3 3 5 6 6 5 5 6 7 9 9 9 8 7 5 3 3 2 4 5 4 5 4 6 6 5 4 2 1 1 2 3 3 4
18 15 15 16 18 18 17 19 18 14 14 12 11 11 9 8 6 5 5 5 5 5 5 5 4 4 4 3 3 4 6 7 6 6 7 7 8 9 9 8 6 4 2 0 1 4 6 5 4 5 4 4 4 4 3 2 0 2 2 3 4 5
18 16 16 17 18 16 16 17 16 14 13 11 11 10 8 8 6 5 4 4 5 6 5 4 4 4 3 3 4 6 7 8 8 7 8 8 8 8 7 5 2 1 1 2 2 4 7 7 5 4 5 4 3 3 2 1 1 2 3 5 6 7
20 18 18 18 17 16 16 15 14 13 12 10 10 9 8 7 6 6 5 4 4 6 6 5 4 4 3 4 6 7 7 8 8 8 9 8 7 5 3 1 3 4 4 3 3 3 5 8 8 6 6 6 5 5 2 1 1 2 5 7 8 8
21 18 19 19 17 17 17 16 15 13 11 10 9 8 7 7 7 7 8 6 5 6 6 5 4 4 5 6 6 6 7 8 7 7 7 5 3 0 2 4 5 5 6 4 3 3 4 7 10 10 8 6 6 7 5 4 3 4 6 8 9 9
20 18 19 19 18 19 19 18 16 14 12 10 9 9 9 9 9 9 9 7 6 5 5 4 4 5 6 6 6 6 7 7 7 5 2 1 3 4 5 5 5 5 5 5 4 4 5 6 9 11 9 6 5 4 3 7 6 5 5 8 11 10
20 19 20 19 19 20 20 18 16 14 13 11 11 12 11 10 11 11 10 8 7 6 5 6 6 6 6 7 6 6 6 6 4 1 3 5 6 7 6 5 5 5 5 6 6 6 7 7 7 8 9 7 6 2 5 7 5 4 5 6 11 11
20 20 20 20 20 20 19 17 15 14 12 10 11 13 12 11 11 11 10 8 7 6 6 6 6 6 6 6 5 6 6 4 1 4 6 8 8 7 6 5 5 6 5 7 9 9 9 10 10 9 9 7 6 6 7 7 5 4 5 3 6 10
22 22 21 21 21 20 18 16 15 13 11 10 11 11 11 11 12 12 9 8 8 7 6 5 6 6 5 4 5 5 4 1 4 7 8 8 8 7 6 6 6 7 7 8 9 9 10 10 10 11 10 9 9 9 9 8 7 5 4 4 2 6
23 22 22 23 22 19 17 15 14 13 12 13 12 10 10 12 12 12 9 8 7 7 6 5 5 4 3 4 5 4 2 3 7 9 9 8 7 7 7 8 8 9 9 10 9 9 10 11 11 11 11 11 11 11 11 10 10 9 7 5 4 3
24 24 24 24 21 19 17 15 14 15 14 14 14 12 12 13 13 11 9 8 6 5 5 5 4 3 4 5 5 3 3 6 9 9 9 8 8 8 9 9 10 10 10 10 10 10 10 11 11 11 11 12 11 11 11 12 12 12 10 7 6 5
27 25 25 23 21 19 17 16 16 15 14 13 14 15 14 14 13 11 9 7 5 3 4 5 4 4 5 5 4 3 6 9 10 9 9 8 9 9 10 11 10 11 11 11 11 11 11 11 11 11 12 12 12 11 12 13 13 13 12 10 7 6
27 26 25 24 22 19 18 17 16 15 14 12 11 13 13 12 12 10 7 5 3 3 4 6 6 7 7 4 2 6 9 11 10 10 9 9 10 11 11 11 11 11 11 11 11 11 11 11 11 11 11 11 11 11 12 13 13 12 12 12 10 8
27 25 25 24 21 19 18 17 16 15 14 13 10 9 10 10 9 8 6 4 3 4 4 5 8 7 4 2 7 10 11 11 10 10 10 10 12 13 12 11 11 11 12 12 11 11 11 11 11 11 11 11 11 11 12 12 12 12 12 13 12 11
27 25 25 24 22 20 19 18 18 17 15 15 13 10 9 9 7 6 4 4 4 5 5 7 10 5 3 7 10 12 11 10 10 10 11 12 13 13 12 11 11 12 12 12 11 11 10 10 10 11 11 11 11 11 11 12 12 12 13 13 14 14
27 26 25 25 23 22 22 20 19 18 16 16 15 13 11 9 7 6 6 5 5 6 7 10 10 4 7 10 12 12 11 10 10 11 12 12 13 13 12 11 11 12 12 12 11 10 9 9 10 10 10 10 10 11 12 12 13 14 14 14 15 16
26 27 25 25 25 24 22 20 19 19 18 17 16 14 13 10 8 8 8 7 7 8 10 11 7 8 11 12 13 11 11 11 11 12 12 13 13 13 12 11 11 12 12 11 10 9 9 9 10 10 10 10 10 11 13 14 14 15 15 16 16 16
27 27 26 24 24 23 21 20 20 20 18 18 17 15 13 11 9 10 10 8 8 9 11 10 6 13 14 14 13 12 11 11 11 12 12 13 13 12 11 11 11 11 11 10 9 9 9 9 10 10 10 10 11 13 14 15 15 15 15 16 16 16
Wind_Direction
164 168 168 173 173 176 178 178 179 178 187 169 155 162 159 155 147 136 129 127 117 109 103 98 99 105 112 120 132 142 149 154 153 156 157 158 162 166 175 184 200 213 224 235 246 264 282 290 295 303 310 314 334 351 340 334 329 325 326 331 321 299
169 170 171 176 175 176 175 178 181 177 189 176 162 165 159 153 143 135 133 130 119 113 103 90 89 100 108 116 128 138 146 152 155 160 162 166 170 174 181 192 208 221 236 249 262 278 306 313 310 306 308 328 350 350 320 330 334 325 334 327 304 305
171 174 174 176 176 175 175 178 178 176 190 183 165 162 157 149 140 143 141 130 113 103 96 86 81 89 94 99 115 128 133 142 151 158 164 171 175 183 194 207 223 234 253 286 312 256 275 311 319 322 327 340 342 320 322 335 336 342 341 316 312 322
174 177 177 178 178 177 175 176 176 182 186 182 169 159 157 155 154 154 142 123 108 100 101 101 89 80 78 79 92 109 116 124 131 138 144 146 151 165 172 224 253 239 270 344 290 242 243 261 293 315 321 321 314 317 336 340 339 355 333 311 322 328
176 177 180 180 180 180 177 177 179 185 186 182 173 162 163 163 158 147 133 123 121 125 123 119 111 97 98 99 90 98 108 112 111 116 112 107 108 106 106 86 11 95 126 186 224 245 249 255 278 299 307 315 325 329 342 341 340 355 327 314 323 325
177 178 182 183 184 183 181 182 183 190 189 177 165 165 168 163 156 143 137 139 134 135 138 139 136 136 140 137 133 114 111 106 101 100 99 102 118 98 102 131 144 141 163 203 248 282 280 281 305 330 341 341 345 342 348 347 345 2 331 316 325 325
177 180 182 185 186 185 186 186 190 196 187 172 167 169 168 162 160 152 148 153 151 162 167 139 131 151 151 141 132 115 104 100 97 91 96 110 109 78 85 138 143 142 146 202 256 293 309 314 322 352 355 344 351 345 347 352 348 11 334 315 324 325
177 181 182 185 184 186 189 190 198 196 181 177 175 169 169 164 163 161 161 170 174 184 191 175 179 186 149 138 131 112 118 110 104 98 99 106 86 56 54 3 3 355 326 278 291 314 331 328 333 352 1 344 350 340 333 342 337 359 335 315 323 325
179 180 182 182 181 186 190 195 200 190 176 176 171 171 172 165 168 176 185 189 185 189 190 191 192 183 162 149 146 125 136 129 123 119 98 96 82 58 39 3 1 354 341 334 327 339 343 344 345 355 7 341 336 336 331 349 351 356 336 317 322 326
183 178 179 179 180 188 193 198 196 180 173 168 166 176 172 171 182 187 198 199 196 199 193 190 183 171 163 141 138 135 144 143 132 114 81 77 64 59 46 3 1 1 350 340 336 347 348 354 350 353 9 345 337 338 332 353 12 4 341 328 331 329
186 175 177 181 183 190 195 200 191 171 166 164 170 179 176 184 191 193 204 204 203 203 193 181 171 168 160 148 149 147 152 143 114 93 84 77 61 55 48 10 352 335 333 331 326 337 342 355 0 357 4 352 344 337 328 333 342 343 339 347 359 339
184 175 177 181 186 192 197 199 185 167 169 174 178 181 188 195 194 201 209 209 212 204 188 171 161 163 162 161 166 161 159 141 118 119 108 77 54 41 17 344 329 320 322 324 322 330 337 346 4 16 10 360 356 350 339 335 331 332 326 328 16 3
181 176 177 180 186 191 194 196 183 173 181 185 182 186 197 200 196 205 211 212 216 205 185 167 155 158 167 174 178 175 153 138 148 137 105 44 26 21 11 337 331 336 337 338 331 331 337 345 356 6 20 9 348 342 336 330 327 320 308 300 296 323
179 175 178 181 185 187 189 191 186 183 189 190 186 190 197 195 192 196 209 216 216 210 186 168 166 166 172 176 171 177 154 148 168 137 51 11 6 1 354 334 338 343 340 341 331 328 334 348 5 357 359 338 308 308 306 304 302 291 284 282 279 278
180 177 178 182 186 189 189 190 192 188 189 192 189 191 193 188 187 193 208 217 216 207 184 175 183 176 172 164 160 192 189 187 211 216 11 1 348 331 321 321 332 332 326 332 329 336 342 337 353 354 5 337 293 286 280 270 254 252 257 262 273 282
182 182 178 181 189 192 191 192 194 189 188 193 189 188 191 185 188 200 208 214 211 192 173 177 184 181 175 165 176 221 221 216 249 288 351 351 338 323 318 319 321 315 307 316 327 337 334 304 285 40 53 286 270 262 254 252 233 223 223 231 270 297
183 184 179 182 189 191 195 195 193 192 190 191 191 191 191 188 193 204 205 211 206 174 162 172 180 182 174 169 190 230 238 233 264 310 336 334 329 319 318 318 313 304 295 300 315 315 309 284 267 87 116 240 247 244 233 224 205 200 201 252 308 319
184 184 187 190 191 190 196 199 192 191 192 192 198 197 190 187 195 200 197 203 196 168 166 170 180 185 180 184 194 227 249 253 274 310 324 320 318 312 313 308 300 294 286 288 286 273 261 258 252 98 153 227 227 221 213 200 183 175 269 319 325 324
188 187 194 199 199 191 193 201 194 190 194 197 202 202 193 187 196 198 192 199 193 174 176 175 181 190 193 201 201 226 255 271 288 303 309 313 315 310 307 298 293 292 288 288 277 265 187 207 212 116 161 213 211 204 192 185 179 266 324 327 332 337
193 192 196 200 198 188 187 199 196 192 198 202 207 207 196 187 199 202 191 190 182 174 182 183 188 194 201 209 210 238 263 280 292 299 303 311 312 308 306 300 299 300 299 302 274 224 148 184 175 120 164 201 198 200 191 185 213 321 331 346 357 9
196 195 200 200 193 185 187 196 194 195 204 206 209 208 197 194 205 208 196 188 179 180 192 198 201 203 209 215 232 257 278 295 305 309 311 313 309 305 305 303 304 309 302 309 170 149 147 159 149 132 150 177 184 189 184 177 305 333 1 33 33 30
200 199 202 198 189 182 185 192 193 198 204 201 200 200 201 203 206 205 203 200 191 196 201 202 204 207 217 233 264 285 306 318 318 318 316 314 311 306 302 297 295 90 127 125 125 159 164 161 174 184 159 152 162 167 199 270 327 13 53 55 44 36
204 202 198 191 186 182 182 191 197 198 198 198 199 202 207 210 206 195 193 201 198 197 196 194 202 218 244 269 293 312 324 325 321 318 316 312 310 305 291 193 133 126 126 123 130 175 178 167 178 206 200 194 187 178 192 294 340 63 74 55 43 40
205 200 195 189 187 187 187 193 196 196 200 203 206 210 210 209 203 184 181 196 203 194 197 206 225 246 271 299 324 334 329 326 324 320 314 309 308 239 143 128 127 129 131 135 155 174 175 175 176 186 207 226 219 207 189 160 141 66 61 49 40 37
204 195 195 191 191 195 194 195 197 200 203 201 205 210 206 200 190 180 181 194 201 196 212 246 263 264 292 324 341 338 331 330 327 322 315 167 137 134 128 124 129 129 130 136 150 159 158 172 179 184 199 218 225 227 148 152 148 92 67 45 41 36
202 195 195 194 198 203 201 201 204 208 208 205 206 205 201 196 189 188 189 193 203 210 229 255 264 281 318 340 341 336 335 332 327 333 139 139 133 129 125 129 134 127 129 131 132 142 139 138 152 169 182 193 202 172 123 159 167 127 119 59 41 38
199 196 197 198 201 207 205 204 206 211 216 213 207 204 202 200 197 198 198 196 207 223 238 257 278 304 327 338 336 334 330 325 316 144 141 135 129 129 130 134 134 127 132 128 124 133 131 124 127 132 138 146 145 127 128 152 171 157 150 112 33 31
200 197 197 201 201 203 204 202 203 206 206 201 202 205 206 204 202 202 201 201 210 229 249 276 308 321 331 333 330 327 316 282 157 148 139 132 128 130 132 132 132 127 126 123 121 129 127 120 120 113 107 106 103 101 104 116 131 134 138 145 68 24
197 196 197 200 199 198 201 201 202 201 198 197 199 201 205 206 202 199 198 205 217 235 262 307 337 332 334 327 319 315 288 177 157 147 136 133 131 131 132 130 129 123 119 118 116 118 115 110 106 101 97 96 93 93 90 88 93 93 98 111 90 56
194 196 196 199 199 196 198 199 197 201 205 204 198 195 201 203 200 195 192 205 227 249 287 329 345 325 323 318 310 296 210 169 153 142 135 134 133 131 129 127 124 120 117 115 111 107 104 100 97 96 96 96 92 88 83 75 73 74 80 83 69 59
194 195 195 198 200 195 195 197 199 206 211 206 199 198 199 198 197 193 190 207 235 263 308 333 332 312 314 310 292 227 176 159 146 140 138 136 133 130 128 127 123 120 116 111 107 103 100 99 97 93 89 88 86 82 78 73 69 67 68 70 62 46
192 194 195 198 199 194 194 197 199 205 206 203 202 199 197 196 194 191 195 208 236 281 315 328 325 314 309 296 216 176 160 150 145 142 139 135 133 132 130 128 125 121 116 111 108 104 102 100 94 89 84 81 80 77 75 71 68 67 65 64 60 46
191 193 196 197 196 194 195 196 198 197 193 195 201 196 191 189 185 185 194 202 245 291 306 317 319 314 297 209 165 160 153 148 146 142 138 137 135 132 129 126 124 120 116 112 109 103 100 96 91 88 83 81 79 75 73 70 68 66 64 62 59 52
191 193 198 199 197 197 199 199 199 194 187 191 199 197 190 185 182 187 195 205 257 289 288 305 312 302 194 163 159 156 151 146 144 140 138 138 134 128 125 125 124 120 116 111 105 99 96 94 93 88 84 82 80 76 73 70 68 65 63 60 57 54
191 194 198 200 200 201 202 202 199 191 185 191 198 197 192 188 189 197 206 221 261 277 278 302 306 248 169 158 157 155 149 145 144 142 137 136 132 126 124 125 124 118 111 105 101 99 98 96 92 87 84 81 77 76 72 69 66 63 61 59 54 53
193 196 199 201 202 201 202 200 194 188 186 191 196 197 195 191 193 205 213 228 259 268 281 301 280 188 164 158 157 154 150 147 146 142 136 134 131 125 124 124 121 113 105 102 101 101 100 97 92 86 83 80 75 73 69 65 63 59 58 57 53 50
195 198 201 204 203 201 201 196 190 187 188 192 196 198 199 196 201 213 215 230 260 270 289 294 212 171 164 162 158 154 153 149 146 141 137 136 130 125 125 121 116 109 105 105 103 102 102 98 93 86 82 79 74 71 66 63 60 57 56 55 51 47